ARIANE 1 DEB

Satellite information

Favourite Embed

Satellite Type and Status

DEBRISIN ORBIT

Key statistics

Satellite ARIANE 1 DEB at a glance.

Uptime

14442

Days in orbit

Revolutions

≈ 14.5

Per day

Orbit

SSO

Sun Synchronous Orbit

Inclination

98.2

Latest

Satellite identification and parameters

Extended collection of information and parameters for ARIANE 1 DEB.

Object identification

Identified? True

Debris? True

Object name: ARIANE 1 DEB

International designator: 1986-019VN

Object number (NORAD): 27596

Object ID (CCSDS): 27596

Country: FRANCE (FR)

Current information (Y/N): Y

RCS size: SMALL

Orbital parameters

Period: 99.081 minutes

Inclination: 98.2285 deg

SMA: 7092.825 km

Apoapsis: 743.522 km

Periapsis: 685.858 km

RAAN: 227.5908 deg

Eccentricy: 0.004065

Argument of periapsis: 111.5361 deg

Mean anomaly: 307.4427 deg

Mean motion: 14.53362316 rev/day

Mean motion (dot): 0.00004374 rev/day2

B* drag term: 0.0010507986 1/REarth

Two-line elements (TLE)

Creation date: Sept. 7, 2025, 3:09 a.m.

Reference frame: TEME

Reference center: EARTH

Epoch: Sept. 6, 2025, 9:22 p.m. UTC

TLE line 0: 0 ARIANE 1 DEB

TLE line 1: 1 27596U 86019VN 25249.89059795 .00004374 00000-0 10508-2 0 9991

TLE line 2: 2 27596 98.2285 227.5908 0040650 111.5361 307.4427 14.53362316572972

Live tracking on map

Real-time ground track for satellite ARIANE 1 DEB.

In-orbit conjunctions

A list of the most updated potential collisions computed for object ARIANE 1 DEB.

Target Orbit TCA Probability of collision Miss distance Type
COSMOS 1331 LEO 2024-10-10 18:09:52 0.0008575924 322.0 (m) PAYLOAD
COSMOS 2251 DEB LEO 2024-09-25 20:43:30 0.0001840444 513.0 (m) DEBRIS

Associated space launch

SPOT 1 is a French Earth observation satellite. Viking is Sweden's first satellite.

ARIANE 1 DEB was lifted into orbit during the mission ‘Ariane 1 | SPOT 1 & Viking’, on board a Ariane 1 space rocket.

The launch took place on Feb. 22, 1986, 1:44 a.m. from Ariane Launch Area 1 (ELV).

For more information about the launch, click the button.

Launch to space Ariane 1 | SPOT 1 & Viking
Ariane 1 | SPOT 1 & Viking

Agency: N/A

Status: Launch Successful

Launch date: Feb. 22, 1986, 1:44 a.m. UTC

Rocket: Ariane 1

Launch pad: Ariane Launch Area 1 (ELV)

Location: Guiana Space Centre, French Guiana

...

Latest news about this satellite

There are no fresh news available about this satellite. Check back as we update our databases every day.


Newsletter sign-up

Weekly statistics, charts and insights to help you stay on top of the space industry.